This demonstration page uses our WeatherBlox Daily Observations layout. Learn more.

Left ArrowRight Arrow

40.92945, -100.16068

Hourly Observations for February 11, 2018

Temp ( °F °C ) Dew Point ( °F °C ) Humidity (%) Winds ( mph kmh ) Pressure ( in mb ) Visibility ( mi km ) Precip ( " mm )
12:15 am 00:15 Clear 8 -13.5 3 -16.2 80 80 SW 5 7 30.30 1026 10 16 N/A
12:35 am 00:35 Clear 7 -14 2 -16.7 80 80 SW 5 7 30.30 1026 10 16 N/A
12:55 am 00:55 Clear 5 -14.8 1 -17.4 81 81 SW 7 11 30.30 1026 10 16 N/A
1:15 am 01:15 Clear 6 -14.6 1 -17.1 81 81 WSW 5 7 30.30 1026 10 16 N/A
1:35 am 01:35 Clear 6 -14.6 2 -16.8 84 84 W 5 7 30.30 1026 10 16 N/A
1:55 am 01:55 Clear 2 -16.5 -2 -19 81 81 N N/A 30.33 1027 10 16 N/A
2:15 am 02:15 Clear 6 -14.3 2 -16.7 82 82 WSW 6 9 30.30 1026 10 16 N/A
2:35 am 02:35 Clear 6 -14.5 1 -17 81 81 WSW 5 7 30.30 1026 10 16 N/A
2:55 am 02:55 Clear 4 -15.7 -1 -18.5 79 79 N N/A 30.30 1026 10 16 N/A
3:15 am 03:15 Clear 5 -15.1 1 -17.3 83 83 WNW 6 9 30.30 1026 10 16 N/A
3:35 am 03:35 Clear -1 -18.4 -5 -20.4 84 84 N N/A 30.33 1027 10 16 N/A
3:55 am 03:55 Clear 1 -17.3 -3 -19.3 85 85 N N/A 30.33 1027 10 16 N/A
4:15 am 04:15 Clear 2 -16.7 -2 -19 83 83 W 9 15 30.33 1027 10 16 N/A
4:35 am 04:35 Clear N/A -4 -20 83 83 W 8 13 30.33 1027 10 16 N/A
4:55 am 04:55 Clear 1 -17.3 -4 -19.9 80 80 WSW 5 7 30.33 1027 10 16 N/A
5:15 am 05:15 Clear N/A -5 -20.5 81 81 WNW 9 15 30.33 1027 10 16 N/A
5:35 am 05:35 Clear -1 -18.3 -5 -20.8 81 81 WNW 10 17 30.33 1027 10 16 N/A
5:55 am 05:55 Clear 1 -17 -3 -19.5 81 81 WNW 10 17 30.33 1027 10 16 N/A
6:15 am 06:15 Clear N/A -5 -20.6 80 80 WNW 10 17 30.33 1027 10 16 N/A
6:35 am 06:35 Clear 2 -16.8 -3 -19.4 80 80 WNW 15 24 30.33 1027 10 16 N/A
6:55 am 06:55 Clear 3 -16 -1 -18.6 81 81 WNW 15 24 30.33 1027 10 16 N/A
7:15 am 07:15 Clear N/A -5 -20.6 80 80 WNW 12 19 30.33 1027 10 16 N/A
7:35 am 07:35 Clear -1 -18.1 -5 -20.6 81 81 WNW 14 22 30.33 1027 10 16 N/A
7:55 am 07:55 Sunny -1 -18.5 -6 -21.2 79 79 WNW 9 15 30.36 1028 10 16 N/A
8:15 am 08:15 Sunny N/A -5 -20.3 81 81 WNW 8 13 30.33 1027 10 16 N/A
8:35 am 08:35 Sunny -1 -18.1 -5 -20.8 80 80 WNW 7 11 30.36 1028 10 16 N/A
8:55 am 08:55 Sunny N/A -5 -20.4 79 79 WNW 10 17 30.36 1028 10 16 N/A
9:15 am 09:15 Sunny 3 -16.2 -2 -19.1 79 79 NW 6 9 30.36 1028 10 16 N/A
9:35 am 09:35 Sunny 3 -16 -2 -19 78 78 WNW 7 11 30.36 1028 10 16 N/A
9:55 am 09:55 Sunny 4 -15.5 -1 -18.6 77 77 WNW 9 15 30.33 1027 10 16 N/A
10:15 am 10:15 Sunny 7 -14.1 1 -17.5 76 76 WNW 7 11 30.36 1028 10 16 N/A
10:35 am 10:35 Sunny 10 -12.5 3 -16.2 74 74 WNW 9 15 30.33 1027 10 16 N/A
10:55 am 10:55 Sunny 11 -11.5 4 -15.5 73 73 WNW 7 11 30.30 1026 10 16 N/A
11:15 am 11:15 Sunny 13 -10.5 5 -15 70 70 N N/A 30.33 1027 10 16 N/A
11:35 am 11:35 Sunny 14 -9.9 6 -14.4 70 70 NW 6 9 30.30 1026 10 16 N/A
11:55 am 11:55 Sunny 16 -9 7 -13.8 68 68 NW 3 6 30.30 1026 10 16 N/A
12:15 pm 12:15 Sunny 17 -8.2 8 -13.5 66 66 N N/A 30.30 1026 10 16 N/A
12:35 pm 12:35 Sunny 18 -7.6 9 -12.6 68 68 N N/A 30.27 1025 10 16 N/A
12:55 pm 12:55 Sunny 20 -6.9 10 -12.4 65 65 N N/A 30.24 1024 10 16 N/A
1:15 pm 13:15 Sunny 20 -6.7 11 -11.9 67 67 N N/A 30.24 1024 10 16 N/A
1:35 pm 13:35 Sunny 21 -5.9 13 -10.7 69 69 N N/A 30.21 1023 10 16 N/A
1:55 pm 13:55 Sunny 26 -3.6 14 -10 62 62 S 8 13 30.18 1022 10 16 N/A
2:15 pm 14:15 Sunny 28 -2.5 13 -10.6 54 54 SSW 7 11 30.18 1022 10 16 N/A
2:35 pm 14:35 Sunny 28 -2.2 13 -10.6 53 53 SW 8 13 30.18 1022 10 16 N/A
2:55 pm 14:55 Sunny 28 -2.5 14 -10.2 56 56 SW 7 11 30.18 1022 10 16 N/A
3:15 pm 15:15 Sunny 28 -2 15 -9.7 56 56 SSW 8 13 30.18 1022 10 16 N/A
3:35 pm 15:35 Sunny 29 -1.9 14 -9.9 55 55 S 5 7 30.21 1023 10 16 N/A
3:55 pm 15:55 Sunny 29 -1.7 14 -10.1 53 53 SSW 7 11 30.15 1021 10 16 N/A
4:15 pm 16:15 Sunny 29 -1.6 14 -10.1 53 53 SSW 8 13 30.18 1022 10 16 N/A
4:35 pm 16:35 Sunny 28 -2.1 15 -9.7 56 56 SSW 6 9 30.21 1023 10 16 N/A
4:55 pm 16:55 Sunny 27 -2.7 14 -9.8 59 59 S 9 15 30.21 1023 10 16 N/A
5:15 pm 17:15 Sunny 25 -4.1 13 -10.4 62 62 S 7 11 30.21 1023 10 16 N/A
5:35 pm 17:35 Sunny 24 -4.3 13 -10.8 61 61 S 7 11 30.21 1023 10 16 N/A
5:55 pm 17:55 Sunny 21 -6.3 11 -11.6 66 66 S 8 13 30.24 1024 10 16 N/A
6:15 pm 18:15 Clear 21 -5.9 13 -10.8 69 69 SSE 6 9 30.24 1024 10 16 N/A
6:35 pm 18:35 Clear 24 -4.5 13 -10.6 63 63 SE 5 7 30.27 1025 10 16 N/A
6:55 pm 18:55 Clear 25 -4 13 -10.5 61 61 SSE 7 11 30.24 1024 10 16 N/A
7:15 pm 19:15 Clear 23 -5 12 -11 63 63 SE 7 11 30.27 1025 10 16 N/A
7:35 pm 19:35 Clear 22 -5.4 12 -11.1 65 65 SE 6 9 30.27 1025 10 16 N/A
7:55 pm 19:55 Clear 23 -5.1 12 -11 64 64 ESE 6 9 30.30 1026 10 16 N/A
8:15 pm 20:15 Clear 17 -8.5 9 -13 70 70 E 6 9 30.33 1027 10 16 N/A
8:35 pm 20:35 Clear 17 -8.2 10 -12.3 73 73 SE 3 6 30.33 1027 10 16 N/A
8:55 pm 20:55 Clear 15 -9.2 8 -13.3 72 72 N N/A 30.36 1028 10 16 N/A
9:15 pm 21:15 Clear 11 -11.8 5 -15 77 77 E 6 9 30.39 1029 10 16 N/A
9:35 pm 21:35 Clear 13 -10.8 7 -13.8 79 79 E 5 7 30.42 1030 10 16 N/A
9:55 pm 21:55 Clear 11 -11.5 6 -14.4 79 79 ENE 6 9 30.42 1030 10 16 N/A
10:15 pm 22:15 Clear 11 -11.7 6 -14.5 80 80 ENE 6 9 30.42 1030 10 16 N/A
10:35 pm 22:35 Clear 10 -12.1 5 -14.9 80 80 E 6 9 30.48 1032 10 16 N/A
10:55 pm 22:55 Clear 13 -10.7 7 -13.8 78 78 E 7 11 30.45 1031 10 16 N/A
11:15 pm 23:15 Clear 10 -12.2 5 -15 80 80 E 6 9 30.48 1032 10 16 N/A
11:35 pm 23:35 Clear 11 -11.6 6 -14.4 80 80 ENE 7 11 30.48 1032 10 16 N/A
11:55 pm 23:55 Clear 10 -12.1 5 -14.9 80 80 E 7 11 30.48 1032 10 16 N/A

Powered by AerisWeather